STARLINK-5507, 55638

Orbit data source: Space-Track

STARLINK-5507, 55638 is a payload satellite owned by SpaceX/Seattle (US) in LEO that was launched on Fri, 17 Feb 2023 UTC via an FALCON 9 launch vehicle from the Air Force Western Test Range (AFWTR). Payload-class satellites include a variety of spacecraft equipped with specific instruments for various scientific and technological missions. These include communications satellites like Starlink; space stations such as the ISS; scientific satellites like the Hubble; Earth observation satellites from companies like Planet Labs, Umbra, and HawkEye 360; GPS; miniature CubeSats for education and research; and military/defense satellites.

Loading next visibility...
Identifier
55638, 2023-021L
Orbit
LEO
Country
Flag of USUS
Related business
Manufacturer
SpaceX/Seattle
Mission
Operational Commercial Communications
Bus & Motor
STARLINK, Unknown motor
Mass
305 kg wet, ~290 kg dry
Launch date (UTC)
2023-02-17 (3 years ago)
Launch vehicle
FALCON 9
Launch site
Air Force Western Test Range (AFWTR)
Object type
Payload
Rocket body
Debris
Shape & HBR
Box + 1 Pan, 10.1 m
Radar Cross Section
13.562 m², Large (>1 m²)

Expand to show TLE details & history
Last TLE update: 2 days ago

TLE from 2 days ago
0 STARLINK-5507
1 55638U 23021L   26171.39601029  .00000645  00000-0  61800-4 0  9996
2 55638  69.9995 305.4532 0003154 263.7620  96.3180 14.98343390183684
Epoch: 2026-06-20T09:30Z
TLE epoch observation values (Epoch: 2026-06-20T09:30:15.289Z)
Latitude
0.00002°
Longitude
-105.72174°
Altitude
574.68 km
Speed
7.574 km/s
True Right ascension
20h 21m 48s
True Declination
0° 00' 00"
Sunlit
Object was in full shadow at epoch
Visualization orbit readout
Latitude
Unknown
Longitude
Unknown
Altitude
Unknown
Speed
Unknown
Apparent Right ascension
Unknown
Apparent Declination
Unknown
Sunlit
N/A
Visualization observer readout
Local Sidereal Time
21:45:18
Azimuth
Unknown
Elevation
Unknown
Doppler factor
Unknown
Orbital elements
Apogee altitude
572.154 km
Perigee altitude
567.771 km
Semi-major axis
6,948.1 km
Eccentricity
0.00032
Inclination
69.9995°
RAAN
305.4532°
Arg. of periapsis
263.762°
True anomaly
96.35392°
Mean anomaly
96.318°
Eccentric anomaly
96.33596°
Mean motion
3.74752 °/min
Orbital period
96.06 mins
BSTAR
0.0000618
Loading maneuver chart data...
Computing Atmospheric mass density...

Documentation

Showing up to 5 results
|